Probability
0 0 0 0 0 0 0 1 1 1 0 0 0 0 0 0 0 0 0 0 0 0 0 1 2 4 5 6 6 6 5 4 3 3 3 3 4 4 4 4 4 3 3 3
0 0 0 0 0 0 0 0 0 0 0 0 0 0 0 0 0 0 0 0 0 0 0 0 2 4 6 6 6 5 4 3 3 3 3 3 3 3 3 3 3 3 3 3
0 0 0 0 0 0 0 0 0 0 0 0 0 0 0 0 0 0 0 0 0 0 0 1 2 4 5 5 4 4 3 3 3 3 3 3 3 3 2 2 2 3 3 4
0 0 0 0 0 0 0 0 0 0 0 0 0 0 0 0 0 0 0 0 0 0 0 1 2 3 4 3 3 3 3 3 3 3 3 3 3 3 3 2 2 3 4 4
0 0 0 0 0 0 0 0 0 0 0 0 0 0 0 0 0 0 0 0 0 0 0 1 1 2 2 1 1 2 3 3 3 3 3 3 3 3 3 3 3 3 3 4
0 0 0 0 0 0 0 0 0 0 0 0 0 0 0 0 0 0 0 0 0 0 0 0 1 1 1 0 0 1 1 2 3 3 3 3 3 3 3 3 3 3 3 3
0 0 0 0 0 0 0 0 0 0 0 0 0 0 0 0 0 0 0 0 0 0 0 0 0 0 0 0 0 0 0 1 2 2 3 3 3 3 3 3 3 3 3 3
0 0 0 0 0 0 0 0 0 0 0 0 0 0 0 0 0 0 0 0 0 0 0 0 0 0 0 0 0 0 0 0 1 1 1 2 2 2 3 3 3 3 3 3
0 0 0 0 0 0 0 0 0 0 0 0 0 0 0 0 0 0 0 0 0 0 0 0 0 0 0 0 0 0 0 0 0 0 0 0 0 1 1 2 2 2 2 1
0 0 0 0 0 0 0 0 0 0 0 0 0 0 0 0 0 0 0 0 0 0 0 0 0 0 0 0 0 0 0 0 0 0 0 0 0 0 0 1 1 1 1 0
0 0 0 0 0 0 0 0 0 0 0 0 0 0 0 0 0 0 0 0 0 0 0 0 0 0 0 0 1 1 1 1 1 1 1 1 0 0 0 0 0 0 0 0
0 0 0 0 0 0 0 0 0 0 0 0 0 0 0 0 0 0 0 0 0 0 0 0 0 0 0 1 2 2 2 2 2 3 2 1 0 0 0 0 0 0 0 0
0 0 0 0 0 0 0 0 0 0 0 0 0 0 0 0 0 0 0 0 0 0 0 0 0 0 0 1 2 3 3 3 3 3 2 1 0 0 0 0 0 0 0 0
0 0 0 0 0 0 0 0 0 0 0 0 0 0 0 0 0 0 0 0 0 0 0 0 0 0 0 0 1 2 2 2 2 2 1 0 0 0 0 0 0 0 0 0
0 0 0 0 0 0 0 0 0 0 0 0 0 0 0 0 0 0 0 0 0 1 0 0 0 0 0 0 0 1 1 0 1 1 0 0 0 0 0 0 0 0 0 0
0 0 0 0 0 0 0 0 0 0 0 0 0 0 0 0 0 0 0 0 0 0 0 0 0 0 0 0 0 0 0 0 0 0 0 0 0 0 0 0 0 0 0 0
0 0 0 0 0 0 0 0 0 0 0 0 0 0 0 0 0 0 0 0 0 0 0 0 0 0 0 0 0 0 0 0 0 0 0 0 0 0 0 0 0 0 0 0
0 0 0 0 0 0 0 0 0 0 0 0 0 0 0 0 0 0 0 0 0 0 0 0 0 0 0 0 0 0 0 0 0 0 0 0 0 0 0 0 0 0 0 0
0 0 0 0 0 0 0 0 0 0 0 0 0 0 0 0 0 0 0 0 0 0 0 0 0 0 0 0 0 0 0 0 0 0 0 0 0 0 0 0 0 0 0 0
0 0 0 0 0 0 0 0 0 0 0 0 0 0 0 0 0 0 0 0 0 0 0 0 0 0 0 0 0 0 0 0 0 0 0 0 0 0 0 0 0 0 0 0
0 0 0 0 0 0 0 0 0 0 0 0 0 0 0 0 0 0 0 0 0 0 0 0 0 0 0 0 0 0 0 0 0 0 0 0 0 0 0 0 0 0 0 0
0 0 0 0 0 0 0 0 0 0 0 0 0 0 0 0 0 0 0 0 0 0 0 0 0 0 0 0 0 0 0 0 0 0 0 0 0 0 0 0 0 0 0 0
0 0 0 0 0 0 0 0 0 0 0 0 0 0 0 0 0 0 0 0 0 0 0 0 0 0 0 0 0 0 0 0 0 0 0 0 0 0 0 0 0 0 0 0
0 0 0 0 0 0 0 0 0 0 0 0 0 0 0 0 0 0 0 0 0 0 0 0 0 0 0 0 0 0 0 0 0 0 0 0 0 0 0 0 0 0 0 0
0 0 0 0 0 0 0 0 0 0 0 0 0 0 0 0 0 0 0 0 0 0 0 0 0 0 0 0 0 0 0 0 0 0 0 0 0 0 0 0 0 0 0 0
0 0 0 0 0 0 0 0 0 0 0 0 0 0 0 0 0 0 0 0 0 0 0 0 0 0 0 0 0 0 0 0 0 0 0 0 0 0 0 0 0 0 0 0
0 0 0 0 0 0 0 0 0 0 0 0 0 0 0 0 0 0 0 0 0 0 0 0 0 0 0 0 0 0 0 0 0 0 0 0 0 0 0 0 0 0 0 0
Wind_Speed
9 8 8 8 8 7 7 7 7 6 4 2 3 3 3 2 2 2 2 2 2 2 1 2 2 2 1 1 1 1 1 0 0 0 1 1 1 1 1 1 1 1 1 1
9 9 9 10 8 8 8 7 8 6 3 1 2 2 2 2 2 2 2 2 2 2 2 2 2 2 2 1 1 1 0 0 0 0 1 1 1 1 1 1 1 1 1 1
8 7 8 9 7 6 4 3 3 4 2 2 1 1 2 2 2 2 2 2 2 2 2 2 1 1 1 1 0 1 1 0 0 0 1 1 1 1 1 1 1 2 2 2
6 7 9 1 1 1 1 1 1 1 2 2 1 2 2 3 3 2 2 1 2 2 2 2 1 1 2 1 1 1 1 0 0 1 1 1 1 2 1 1 2 2 2 2
5 7 6 2 1 1 2 1 1 1 1 2 2 2 2 3 3 2 2 2 2 2 2 2 2 2 2 2 2 1 0 0 1 1 1 2 2 2 2 2 2 2 2 3
5 6 5 1 2 2 2 1 1 1 1 1 1 1 1 2 2 2 3 2 2 2 2 2 2 2 2 2 2 2 2 2 1 1 2 2 2 3 2 2 2 2 2 2
7 7 3 1 2 1 1 1 3 2 2 1 0 1 2 2 2 2 2 2 2 2 2 2 2 2 1 2 2 2 2 2 2 1 2 3 2 2 3 2 2 2 3 2
5 6 2 3 2 1 2 3 3 2 2 1 2 3 3 2 2 2 1 1 1 1 1 1 2 2 2 2 2 2 2 2 2 1 2 2 2 2 2 2 2 2 2 2
1 1 3 3 3 2 3 3 3 2 2 2 2 2 2 2 2 1 1 1 1 1 1 1 1 1 2 2 2 2 2 2 2 2 1 1 2 2 2 2 2 2 2 2
2 1 1 2 3 3 3 3 3 3 2 2 2 1 1 1 1 1 1 1 1 1 2 2 2 1 1 2 2 2 3 3 3 2 2 1 1 1 1 2 2 2 2 2
4 2 1 1 2 3 4 3 3 2 2 2 1 1 0 0 0 1 1 1 1 1 2 2 2 2 2 2 2 3 2 2 3 2 2 2 1 2 2 2 2 2 2 2
3 1 2 3 3 3 3 2 2 1 2 2 2 1 1 0 0 1 1 1 2 2 2 3 3 2 2 3 3 3 3 2 2 2 1 1 1 2 3 3 5 5 5 4
3 4 3 3 3 3 3 3 2 2 2 2 2 1 1 1 1 1 1 1 2 2 3 3 3 3 2 3 3 3 3 3 2 2 2 2 1 1 2 3 4 5 5 5
3 3 3 3 3 3 4 3 2 2 1 1 2 1 1 1 1 1 2 2 2 2 2 3 3 3 3 3 3 3 3 3 2 1 1 2 2 2 2 2 3 3 4 4
3 3 3 2 2 3 3 2 2 2 2 1 1 1 1 1 2 2 2 2 2 2 2 3 3 3 3 3 4 4 3 2 1 1 1 2 2 2 2 2 2 2 2 3
3 3 2 2 2 3 3 3 3 2 2 2 1 1 2 2 2 2 2 1 1 2 2 2 2 3 3 3 3 3 3 5 4 2 1 1 2 2 2 2 3 2 2 2
3 3 3 3 3 3 3 3 3 2 2 2 2 2 2 2 2 2 2 2 2 2 1 2 2 3 3 3 3 2 2 3 5 3 1 2 2 2 2 2 3 3 2 2
5 4 3 3 3 3 3 3 3 2 2 2 1 1 2 2 3 2 2 2 2 2 2 2 2 3 3 2 2 2 2 2 2 2 2 2 2 2 2 2 3 3 3 2
3 2 2 2 3 2 2 2 2 2 1 1 1 2 2 2 2 2 1 1 2 2 2 2 4 3 2 3 3 2 2 3 3 3 2 3 3 2 2 2 3 3 3 2
2 1 1 2 2 2 2 2 2 1 1 1 1 1 2 2 2 2 1 1 1 2 2 3 2 2 2 3 3 2 2 3 3 3 3 2 2 2 2 2 3 3 3 3
1 1 1 1 2 2 2 2 2 1 1 1 1 1 1 2 1 1 1 1 2 2 2 3 2 2 2 3 3 2 2 2 3 3 3 3 2 2 2 3 3 3 3 3
2 1 1 1 1 2 2 1 1 1 1 1 1 1 1 1 1 1 1 1 2 3 2 1 2 3 4 3 2 2 2 2 2 2 2 3 3 3 3 3 3 3 3 3
1 1 1 1 1 1 1 1 1 1 1 1 1 1 1 1 1 1 1 1 1 3 2 1 3 5 5 2 2 2 2 2 2 2 2 2 3 3 3 3 3 3 3 3
1 1 1 1 1 1 1 1 2 2 1 1 1 1 1 1 1 2 1 2 3 3 2 2 4 4 4 2 2 2 2 2 2 2 2 2 2 3 3 3 3 3 3 3
0 0 0 0 0 1 1 1 1 1 1 1 1 2 1 1 1 1 1 1 2 3 2 2 3 4 3 2 2 2 2 2 2 2 2 3 3 3 3 3 3 3 3 3
1 0 0 0 0 1 0 0 0 0 1 1 1 1 1 1 1 1 1 1 1 2 2 1 1 2 2 2 2 2 2 3 3 2 2 3 3 3 3 3 4 3 3 3
1 1 1 1 1 0 0 0 0 0 1 1 1 1 1 1 1 1 1 1 1 1 1 1 1 1 2 2 2 2 2 2 2 2 2 3 3 3 3 4 3 3 3 3
Wind_Direction
280 287 283 269 263 246 248 259 268 278 266 227 167 147 133 117 111 106 102 93 74 56 25 28 15 1 52 82 87 84 116 145 122 49 9 355 348 334 315 302 290 293 309 305
275 270 268 269 262 246 245 255 264 273 286 2 96 98 113 130 124 108 91 70 55 36 20 31 25 1 7 22 127 126 158 201 117 53 12 354 343 322 319 293 291 305 292 288
276 275 272 258 257 241 233 268 282 287 313 71 95 126 128 114 112 100 82 61 43 31 10 15 27 352 335 331 222 161 171 103 60 350 321 305 320 321 306 302 291 279 273 274
276 278 259 252 88 145 179 249 6 358 38 76 48 75 87 100 103 89 75 58 44 30 3 2 3 3 351 326 302 204 163 104 353 319 309 309 306 298 289 283 278 264 268 275
263 267 259 220 210 281 261 267 49 325 33 64 58 77 80 73 70 68 64 59 47 15 346 352 6 3 351 340 334 331 39 32 333 321 317 315 303 296 286 283 278 272 261 260
257 266 267 64 54 332 276 232 64 48 81 90 119 226 192 87 69 61 56 50 35 9 351 348 349 354 353 340 347 356 357 345 335 331 321 305 298 302 303 292 277 285 290 274
252 261 276 37 39 331 237 36 64 56 71 112 273 1 118 112 84 81 71 50 35 14 356 347 342 338 333 336 350 353 346 338 336 333 309 293 292 302 304 305 300 296 294 295
245 248 250 54 60 44 28 47 55 38 32 36 41 39 80 95 89 77 72 68 45 19 354 345 333 333 336 342 348 348 343 337 328 325 311 318 299 293 296 294 289 289 294 306
272 280 56 64 57 32 19 13 16 20 25 43 25 39 55 64 85 83 45 23 24 360 322 320 342 353 337 339 347 338 329 325 315 310 304 312 300 289 294 294 287 291 293 299
265 262 44 24 15 7 12 7 6 15 19 19 359 24 55 66 62 54 34 5 356 343 340 339 347 346 331 331 335 333 326 324 319 313 310 312 310 295 297 299 295 301 303 300
273 288 313 340 346 356 0 5 17 16 10 357 359 342 16 22 50 18 353 340 336 337 339 330 336 345 350 344 332 316 307 313 316 315 317 319 333 328 311 297 289 291 286 287
277 313 306 314 331 336 334 335 356 4 345 338 338 331 347 344 356 331 326 332 337 334 329 322 326 331 342 341 330 319 316 316 315 315 311 312 324 343 352 321 320 312 307 304
323 342 340 333 335 339 335 330 338 335 313 317 334 344 328 328 321 317 320 323 322 328 325 320 328 337 342 343 336 326 318 316 318 321 323 323 320 311 316 332 331 317 310 312
347 346 322 323 327 330 327 324 327 336 322 337 355 346 329 317 309 301 302 316 322 323 323 331 337 340 346 345 333 325 320 314 320 315 324 326 315 308 303 304 311 314 315 308
297 307 298 317 325 324 325 318 313 318 317 338 343 323 311 293 291 298 312 320 331 329 331 336 334 338 349 343 337 331 324 320 322 324 326 320 314 309 303 301 300 300 312 314
292 301 302 302 304 309 312 304 299 302 305 303 308 311 312 305 301 302 307 324 324 314 320 328 334 339 345 347 339 333 324 323 327 314 307 308 309 306 303 301 301 296 293 304
269 271 282 285 280 278 282 290 291 295 297 304 311 318 314 310 300 290 295 310 310 308 322 333 335 342 341 346 336 321 318 318 323 323 310 305 306 304 304 304 305 304 294 283
254 258 267 277 283 287 290 299 299 298 291 299 303 293 283 279 283 291 300 312 316 324 337 344 350 346 337 331 325 317 312 306 301 303 301 306 312 307 305 307 310 312 312 299
263 270 274 283 292 292 294 300 305 301 299 281 268 282 290 292 300 310 331 328 314 314 326 347 342 335 319 323 333 311 305 309 313 312 313 317 318 316 317 315 311 310 314 316
291 311 329 326 317 309 307 308 303 298 300 290 272 281 289 296 305 309 308 302 307 323 326 330 323 321 326 323 332 311 314 316 315 315 313 306 299 306 312 315 317 319 321 322
302 313 343 341 327 317 304 299 295 298 323 341 299 288 295 308 314 315 307 310 330 342 336 338 343 329 321 326 327 315 310 313 313 313 316 316 318 316 312 313 316 321 324 326
343 6 6 338 308 302 307 323 335 342 358 341 319 325 334 332 336 338 335 344 347 346 349 335 330 335 339 344 320 313 313 314 312 317 321 322 321 320 318 319 319 324 327 327
350 356 350 318 310 326 357 10 18 36 46 29 349 358 12 3 354 331 325 356 358 343 344 343 341 349 350 341 324 320 320 322 326 331 330 326 325 324 324 325 328 332 327 327
349 347 4 34 24 25 21 24 40 47 43 38 40 37 33 28 14 9 14 6 357 347 342 336 340 343 342 326 321 322 326 330 335 338 335 331 329 329 330 332 331 327 322 322
299 340 28 27 11 31 41 37 46 52 49 52 50 39 30 32 18 9 11 3 345 347 341 332 338 341 337 324 333 336 340 345 348 349 346 339 333 330 327 327 329 324 319 314
186 165 102 18 65 74 42 34 49 49 49 50 42 36 29 28 36 28 8 345 339 341 346 339 329 332 333 336 340 343 345 344 345 339 329 329 329 329 327 327 324 318 313 309
78 81 85 68 54 55 47 43 40 47 54 59 42 18 12 10 14 6 354 343 343 347 345 349 352 352 345 343 343 343 340 340 340 338 337 337 333 328 327 324 318 314 311 310